| time (UTC) | temp F | wind direction | speed knots | gust knots | rain 1hr in | rain 24hr in | rain mn in | humidity % | barometer mb |
| 20260505122318 | 65 | 123 | 2.6 | 9.6 | 0.00 | 0.00 | 0.00 | 45 | 1012.0 |
| 20260505121828 | 64 | 233 | 2.6 | 9.6 | 0.00 | 0.00 | 0.00 | 46 | 1012.1 |
| 20260505121603 | 63 | 254 | 3.5 | 11.3 | 0.00 | 0.00 | 0.00 | 46 | 1011.7 |
| 20260505121309 | 64 | 172 | 4.3 | 11.3 | 0.00 | 0.00 | 0.00 | 46 | 1011.9 |
| 20260505120813 | 63 | 360 | 5.2 | 13.0 | 0.00 | 0.00 | 0.00 | 46 | 1011.9 |
| 20260505120323 | 63 | 360 | 8.7 | 13.0 | 0.00 | 0.00 | 0.00 | 46 | 1011.7 |
| 20260505120100 | 63 | 232 | 7.0 | 11.3 | 0.00 | 0.00 | 0.00 | 46 | 1011.5 |
| 20260505115826 | 63 | 223 | 5.2 | 10.4 | 0.00 | 0.00 | 0.00 | 46 | 1011.7 |
| 20260505115328 | 63 | 360 | 2.6 | 13.0 | 0.00 | 0.00 | 0.00 | 47 | 1011.7 |
| 20260505114813 | 63 | 234 | 4.3 | 13.0 | 0.00 | 0.00 | 0.00 | 47 | 1011.8 |
| 20260505114510 | 62 | 360 | 7.0 | 11.3 | 0.00 | 0.00 | 0.00 | 47 | 1011.5 |
| 20260505114322 | 63 | 163 | 4.3 | 11.3 | 0.00 | 0.00 | 0.00 | 48 | 1011.8 |
| 20260505113827 | 63 | 360 | 2.6 | 11.3 | 0.00 | 0.00 | 0.00 | 48 | 1011.7 |
| 20260505113339 | 62 | 360 | 4.3 | 11.3 | 0.00 | 0.00 | 0.00 | 48 | 1011.7 |
| 20260505113005 | 62 | 121 | 2.6 | 10.4 | 0.00 | 0.00 | 0.00 | 49 | 1011.3 |
| 20260505112822 | 62 | 360 | 4.3 | 10.4 | 0.00 | 0.00 | 0.00 | 49 | 1011.7 |
| 20260505112326 | 62 | 360 | 2.6 | 7.8 | 0.00 | 0.00 | 0.00 | 49 | 1011.7 |
| 20260505111809 | 61 | 302 | 2.6 | 9.6 | 0.00 | 0.00 | 0.00 | 49 | 1011.6 |
| 20260505111507 | 61 | 229 | 1.7 | 9.6 | 0.00 | 0.00 | 0.00 | 50 | 1011.3 |
| 20260505111319 | 61 | 224 | 4.3 | 9.6 | 0.00 | 0.00 | 0.00 | 50 | 1011.5 |
| 20260505110824 | 61 | 360 | 2.6 | 8.7 | 0.00 | 0.00 | 0.00 | 50 | 1011.4 |
| 20260505110313 | 61 | 154 | 2.6 | 8.7 | 0.00 | 0.00 | 0.00 | 51 | 1011.4 |
| 20260505101823 | 59 | 360 | 1.7 | 6.1 | 0.00 | 0.00 | 0.00 | 54 | 1011.2 |
| 20260505101553 | 58 | 360 | 1.7 | 6.1 | 0.00 | 0.00 | 0.00 | 54 | 1010.9 |
| 20260505101324 | 59 | 246 | 2.6 | 6.1 | 0.00 | 0.00 | 0.00 | 54 | 1011.2 |
| 20260505100812 | 59 | 360 | 2.6 | 6.1 | 0.00 | 0.00 | 0.00 | 54 | 1011.2 |
| 20260505100323 | 59 | 263 | 3.5 | 6.1 | 0.00 | 0.00 | 0.00 | 54 | 1011.1 |
| 20260505100056 | 58 | 223 | 2.6 | 6.1 | 0.00 | 0.00 | 0.00 | 54 | 1010.9 |
| 20260505095828 | 59 | 245 | 2.6 | 5.2 | 0.00 | 0.00 | 0.00 | 54 | 1011.2 |
| 20260505095339 | 59 | 257 | 2.6 | 7.0 | 0.00 | 0.00 | 0.00 | 54 | 1011.1 |
| 20260505094819 | 59 | 277 | 2.6 | 7.0 | 0.00 | 0.00 | 0.00 | 54 | 1011.1 |
| 20260505094547 | 59 | 274 | 1.7 | 7.0 | 0.00 | 0.00 | 0.00 | 54 | 1010.8 |
| 20260505094322 | 59 | 360 | 4.3 | 7.0 | 0.00 | 0.00 | 0.00 | 54 | 1011.0 |
| 20260505093832 | 59 | 263 | 3.5 | 7.0 | 0.00 | 0.00 | 0.00 | 54 | 1011.1 |
| 20260505093317 | 59 | 249 | 3.5 | 8.7 | 0.00 | 0.00 | 0.00 | 54 | 1011.0 |
| 20260505093059 | 59 | 275 | 2.6 | 8.7 | 0.00 | 0.00 | 0.00 | 54 | 1010.7 |
| 20260505092821 | 59 | 360 | 2.6 | 8.7 | 0.00 | 0.00 | 0.00 | 54 | 1011.0 |
| 20260505092352 | 60 | 252 | 2.6 | 6.1 | 0.00 | 0.00 | 0.00 | 54 | 1010.8 |
| 20260505091816 | 60 | 234 | 2.6 | 6.1 | 0.00 | 0.00 | 0.00 | 53 | 1010.9 |
| 20260505091553 | 59 | 360 | 0.9 | 6.1 | 0.00 | 0.00 | 0.00 | 53 | 1010.7 |
| 20260505091319 | 60 | 255 | 2.6 | 6.1 | 0.00 | 0.00 | 0.00 | 53 | 1010.9 |
| 20260505090830 | 60 | 258 | 2.6 | 10.4 | 0.00 | 0.00 | 0.00 | 53 | 1010.9 |
| 20260505090314 | 60 | 238 | 4.3 | 10.4 | 0.00 | 0.00 | 0.00 | 53 | 1010.9 |
| 20260505090044 | 59 | 360 | 2.6 | 7.0 | 0.00 | 0.00 | 0.00 | 53 | 1010.7 |
| 20260505085820 | 60 | 265 | 2.6 | 7.8 | 0.00 | 0.00 | 0.00 | 53 | 1010.8 |
| 20260505085331 | 60 | 360 | 3.5 | 7.8 | 0.00 | 0.00 | 0.00 | 53 | 1011.0 |
| 20260505084813 | 60 | 360 | 2.6 | 7.0 | 0.00 | 0.00 | 0.00 | 53 | 1010.8 |
| 20260505084531 | 60 | 254 | 2.6 | 6.1 | 0.00 | 0.00 | 0.00 | 53 | 1010.6 |
| 20260505084343 | 60 | 257 | 2.6 | 7.8 | 0.00 | 0.00 | 0.00 | 53 | 1010.9 |
| 20260505083826 | 60 | 217 | 3.5 | 7.8 | 0.00 | 0.00 | 0.00 | 53 | 1011.0 |
| 20260505083337 | 60 | 241 | 2.6 | 6.1 | 0.00 | 0.00 | 0.00 | 53 | 1011.0 |
| 20260505083118 | 59 | 360 | 2.6 | 4.3 | 0.00 | 0.00 | 0.00 | 53 | 1010.7 |
| 20260505082818 | 60 | 360 | 1.7 | 5.2 | 0.00 | 0.00 | 0.00 | 53 | 1010.9 |
| 20260505082323 | 60 | 360 | 1.7 | 6.1 | 0.00 | 0.00 | 0.00 | 53 | 1010.9 |
| 20260505081834 | 60 | 248 | 3.5 | 6.1 | 0.00 | 0.00 | 0.00 | 53 | 1011.0 |
| 20260505081504 | 59 | 235 | 2.6 | 6.1 | 0.00 | 0.00 | 0.00 | 53 | 1010.8 |
| 20260505081337 | 60 | 242 | 2.6 | 5.2 | 0.00 | 0.00 | 0.00 | 53 | 1011.0 |
| 20260505080827 | 60 | 360 | 2.6 | 5.2 | 0.00 | 0.00 | 0.00 | 53 | 1011.1 |
| 20260505080312 | 60 | 360 | 1.7 | 6.1 | 0.00 | 0.00 | 0.00 | 53 | 1011.1 |
| 20260505080100 | 59 | 360 | 1.7 | 6.1 | 0.00 | 0.00 | 0.00 | 53 | 1010.9 |
| 20260505075817 | 60 | 360 | 2.6 | 5.2 | 0.00 | 0.00 | 0.00 | 53 | 1010.9 |
| 20260505075320 | 60 | 252 | 2.6 | 7.0 | 0.00 | 0.00 | 0.00 | 53 | 1010.8 |
| 20260505074831 | 60 | 360 | 2.6 | 7.0 | 0.00 | 0.00 | 0.00 | 53 | 1010.8 |
| 20260505074511 | 59 | 360 | 2.6 | 6.1 | 0.00 | 0.00 | 0.00 | 53 | 1010.6 |
| 20260505074314 | 60 | 273 | 2.6 | 6.1 | 0.00 | 0.00 | 0.00 | 52 | 1010.8 |
| 20260505073819 | 60 | 360 | 2.6 | 6.1 | 0.00 | 0.00 | 0.00 | 52 | 1010.8 |
| 20260505073351 | 60 | 238 | 1.7 | 6.1 | 0.00 | 0.00 | 0.00 | 52 | 1010.8 |
| 20260505073006 | 59 | 234 | 2.6 | 6.1 | 0.00 | 0.00 | 0.00 | 52 | 1010.7 |
| 20260505072814 | 60 | 237 | 2.6 | 6.1 | 0.00 | 0.00 | 0.00 | 52 | 1010.8 |
| 20260505072318 | 60 | 360 | 1.7 | 8.7 | 0.00 | 0.00 | 0.00 | 51 | 1010.8 |
| 20260505071823 | 60 | 360 | 3.5 | 8.7 | 0.00 | 0.00 | 0.00 | 51 | 1011.0 |
| 20260505071509 | 59 | 240 | 1.7 | 7.0 | 0.00 | 0.00 | 0.00 | 51 | 1010.7 |
| 20260505071313 | 60 | 360 | 2.6 | 7.0 | 0.00 | 0.00 | 0.00 | 51 | 1010.9 |
| 20260505070839 | 60 | 360 | 2.6 | 5.2 | 0.00 | 0.00 | 0.00 | 51 | 1011.1 |
| 20260505070328 | 60 | 360 | 1.7 | 6.1 | 0.00 | 0.00 | 0.00 | 51 | 1010.9 |
| 20260505070005 | 59 | 360 | 1.7 | 5.2 | 0.00 | 0.00 | 0.00 | 51 | 1010.7 |
| 20260505065832 | 60 | 360 | 1.7 | 4.3 | 0.00 | 0.00 | 0.00 | 51 | 1010.9 |
| 20260505065315 | 60 | 360 | 1.7 | 4.3 | 0.00 | 0.00 | 0.00 | 51 | 1010.9 |
| 20260505064825 | 60 | 279 | 1.7 | 4.3 | 0.00 | 0.00 | 0.00 | 51 | 1011.0 |
| 20260505064603 | 59 | 279 | 0.9 | 4.3 | 0.00 | 0.00 | 0.00 | 50 | 1010.8 |
| 20260505064328 | 60 | 360 | 0.9 | 4.3 | 0.00 | 0.00 | 0.00 | 50 | 1011.0 |
| 20260505063813 | 60 | 266 | 1.7 | 6.1 | 0.00 | 0.00 | 0.00 | 51 | 1011.0 |
| 20260505063324 | 60 | 246 | 2.6 | 5.2 | 0.00 | 0.00 | 0.00 | 50 | 1011.0 |
| 20260505063011 | 59 | 263 | 1.7 | 4.3 | 0.00 | 0.00 | 0.00 | 50 | 1010.7 |
| 20260505062830 | 59 | 360 | 1.7 | 5.2 | 0.00 | 0.00 | 0.00 | 50 | 1010.8 |
| 20260505062340 | 59 | 360 | 1.7 | 4.3 | 0.00 | 0.00 | 0.00 | 50 | 1011.0 |
| 20260505061823 | 59 | 360 | 1.7 | 3.5 | 0.00 | 0.00 | 0.00 | 50 | 1011.0 |
| 20260505061545 | 59 | 360 | 0.9 | 3.5 | 0.00 | 0.00 | 0.00 | 49 | 1010.8 |
| 20260505061333 | 59 | 360 | 1.7 | 3.5 | 0.00 | 0.00 | 0.00 | 49 | 1011.1 |
| 20260505060818 | 59 | 360 | 1.7 | 3.5 | 0.00 | 0.00 | 0.00 | 49 | 1011.1 |
| 20260505060322 | 60 | 360 | 0.9 | 3.5 | 0.00 | 0.00 | 0.00 | 48 | 1011.0 |
| 20260505060049 | 59 | 360 | 0.0 | 3.5 | 0.00 | 0.00 | 0.00 | 48 | 1010.8 |
| 20260505055852 | 60 | 360 | 0.9 | 3.5 | 0.00 | 0.00 | 0.00 | 48 | 1011.0 |
| 20260505055337 | 60 | 360 | 1.7 | 2.6 | 0.00 | 0.00 | 0.00 | 48 | 1011.1 |
| 20260505054819 | 60 | 360 | 0.9 | 2.6 | 0.00 | 0.00 | 0.00 | 47 | 1011.0 |
| 20260505054524 | 59 | 253 | 0.9 | 2.6 | 0.00 | 0.00 | 0.00 | 47 | 1010.9 |
| 20260505054329 | 60 | 360 | 0.9 | 2.6 | 0.00 | 0.00 | 0.00 | 47 | 1011.0 |
| 20260505053811 | 60 | 252 | 0.9 | 2.6 | 0.00 | 0.00 | 0.00 | 47 | 1011.1 |
| 20260505053314 | 60 | 251 | 0.0 | 3.5 | 0.00 | 0.00 | 0.00 | 46 | 1011.1 |
| 20260505053032 | 60 | 360 | 0.0 | 3.5 | 0.00 | 0.00 | 0.00 | 46 | 1011.0 |
| 20260505052819 | 60 | 360 | 0.9 | 3.5 | 0.00 | 0.00 | 0.00 | 46 | 1011.0 |
| 20260505052330 | 61 | 244 | 1.7 | 3.5 | 0.00 | 0.00 | 0.00 | 46 | 1011.0 |
| 20260505051815 | 61 | 247 | 1.7 | 4.3 | 0.00 | 0.00 | 0.00 | 46 | 1011.0 |
| 20260505051548 | 60 | 360 | 1.7 | 7.0 | 0.00 | 0.00 | 0.00 | 45 | 1010.8 |
| 20260505051320 | 61 | 239 | 2.6 | 7.0 | 0.00 | 0.00 | 0.00 | 45 | 1011.0 |
| 20260505050830 | 61 | 246 | 3.5 | 7.0 | 0.00 | 0.00 | 0.00 | 45 | 1011.1 |
| 20260505050314 | 61 | 250 | 2.6 | 6.1 | 0.00 | 0.00 | 0.00 | 44 | 1011.1 |
| 20260505041616 | 62 | 237 | 3.5 | 7.0 | 0.00 | 0.00 | 0.00 | 41 | 1010.7 |
| 20260505041313 | 62 | 237 | 2.6 | 6.1 | 0.00 | 0.00 | 0.00 | 41 | 1010.8 |
| 20260505040816 | 62 | 215 | 2.6 | 7.8 | 0.00 | 0.00 | 0.00 | 40 | 1010.7 |
| 20260505040327 | 62 | 213 | 3.5 | 7.8 | 0.00 | 0.00 | 0.00 | 40 | 1010.7 |
| 20260505040011 | 62 | 360 | 3.5 | 7.8 | 0.00 | 0.00 | 0.00 | 40 | 1010.5 |
| 20260505035833 | 62 | 236 | 3.5 | 7.8 | 0.00 | 0.00 | 0.00 | 39 | 1010.7 |
| 20260505035343 | 63 | 219 | 3.5 | 6.1 | 0.00 | 0.00 | 0.00 | 39 | 1010.7 |
| 20260505034827 | 63 | 240 | 3.5 | 7.0 | 0.00 | 0.00 | 0.00 | 38 | 1010.7 |
| 20260505034545 | 62 | 239 | 0.9 | 7.0 | 0.00 | 0.00 | 0.00 | 38 | 1010.5 |
| 20260505034310 | 63 | 230 | 3.5 | 7.0 | 0.00 | 0.00 | 0.00 | 38 | 1010.7 |
| 20260505033841 | 63 | 240 | 1.7 | 8.7 | 0.00 | 0.00 | 0.00 | 37 | 1010.7 |
| 20260505033322 | 63 | 207 | 3.5 | 7.8 | 0.00 | 0.00 | 0.00 | 37 | 1010.8 |
| 20260505033036 | 62 | 205 | 3.5 | 7.0 | 0.00 | 0.00 | 0.00 | 37 | 1010.7 |
| 20260505032832 | 63 | 207 | 1.7 | 5.2 | 0.00 | 0.00 | 0.00 | 37 | 1011.0 |
| 20260505032317 | 63 | 360 | 4.3 | 7.8 | 0.00 | 0.00 | 0.00 | 36 | 1011.0 |
| 20260505031822 | 63 | 360 | 3.5 | 7.8 | 0.00 | 0.00 | 0.00 | 36 | 1011.0 |
| 20260505031555 | 63 | 198 | 2.6 | 7.0 | 0.00 | 0.00 | 0.00 | 35 | 1010.8 |
| 20260505031325 | 63 | 360 | 3.5 | 5.2 | 0.00 | 0.00 | 0.00 | 35 | 1011.0 |
| 20260505030810 | 63 | 211 | 3.5 | 5.2 | 0.00 | 0.00 | 0.00 | 35 | 1010.9 |
| 20260505030321 | 64 | 217 | 2.6 | 7.8 | 0.00 | 0.00 | 0.00 | 35 | 1011.0 |
| 20260505030052 | 63 | 217 | 1.7 | 7.8 | 0.00 | 0.00 | 0.00 | 35 | 1010.9 |
| 20260505025825 | 64 | 207 | 4.3 | 7.8 | 0.00 | 0.00 | 0.00 | 34 | 1010.9 |
| 20260505025337 | 64 | 360 | 2.6 | 5.2 | 0.00 | 0.00 | 0.00 | 34 | 1010.8 |
| 20260505024841 | 64 | 217 | 1.7 | 8.7 | 0.00 | 0.00 | 0.00 | 34 | 1011.0 |
| 20260505024539 | 64 | 217 | 4.3 | 8.7 | 0.00 | 0.00 | 0.00 | 33 | 1010.6 |
| 20260505024330 | 64 | 207 | 4.3 | 8.7 | 0.00 | 0.00 | 0.00 | 33 | 1010.7 |
| 20260505023815 | 64 | 360 | 4.3 | 8.7 | 0.00 | 0.00 | 0.00 | 33 | 1010.8 |
| 20260505023319 | 64 | 360 | 2.6 | 7.8 | 0.00 | 0.00 | 0.00 | 33 | 1010.9 |
| 20260505023046 | 64 | 360 | 3.5 | 7.8 | 0.00 | 0.00 | 0.00 | 33 | 1010.7 |
| 20260505022824 | 65 | 226 | 2.6 | 6.1 | 0.00 | 0.00 | 0.00 | 32 | 1011.0 |
| 20260505022334 | 65 | 228 | 3.5 | 6.1 | 0.00 | 0.00 | 0.00 | 32 | 1011.0 |
| 20260505021817 | 65 | 217 | 2.6 | 7.0 | 0.00 | 0.00 | 0.00 | 32 | 1011.0 |
| 20260505021555 | 64 | 213 | 1.7 | 7.0 | 0.00 | 0.00 | 0.00 | 32 | 1010.9 |
| 20260505021320 | 65 | 231 | 3.5 | 7.0 | 0.00 | 0.00 | 0.00 | 32 | 1011.1 |
| 20260505020831 | 65 | 231 | 2.6 | 7.0 | 0.00 | 0.00 | 0.00 | 32 | 1011.0 |
| 20260505020315 | 65 | 360 | 2.6 | 7.0 | 0.00 | 0.00 | 0.00 | 32 | 1011.0 |
| 20260505020055 | 65 | 360 | 2.6 | 7.8 | 0.00 | 0.00 | 0.00 | 32 | 1010.9 |
| 20260505015818 | 65 | 262 | 3.5 | 7.8 | 0.00 | 0.00 | 0.00 | 32 | 1011.0 |
| 20260505015323 | 65 | 223 | 2.6 | 7.0 | 0.00 | 0.00 | 0.00 | 32 | 1011.0 |
| 20260505014834 | 65 | 231 | 3.5 | 7.0 | 0.00 | 0.00 | 0.00 | 32 | 1011.0 |
| 20260505014509 | 65 | 220 | 2.6 | 5.2 | 0.00 | 0.00 | 0.00 | 32 | 1010.8 |
| 20260505014319 | 66 | 227 | 1.7 | 7.8 | 0.00 | 0.00 | 0.00 | 31 | 1010.9 |
| 20260505013824 | 66 | 219 | 1.7 | 7.8 | 0.00 | 0.00 | 0.00 | 31 | 1010.9 |
| 20260505013309 | 66 | 267 | 2.6 | 5.2 | 0.00 | 0.00 | 0.00 | 31 | 1010.9 |
| 20260505013029 | 65 | 360 | 1.7 | 6.1 | 0.00 | 0.00 | 0.00 | 31 | 1010.8 |
| 20260505012840 | 66 | 255 | 2.6 | 6.1 | 0.00 | 0.00 | 0.00 | 31 | 1010.8 |
| 20260505012324 | 66 | 238 | 3.5 | 6.1 | 0.00 | 0.00 | 0.00 | 30 | 1010.8 |
| 20260505011809 | 66 | 246 | 2.6 | 7.8 | 0.00 | 0.00 | 0.00 | 30 | 1010.8 |
| 20260505011511 | 66 | 252 | 3.5 | 7.8 | 0.00 | 0.00 | 0.00 | 30 | 1010.8 |
| 20260505011320 | 66 | 219 | 3.5 | 7.0 | 0.00 | 0.00 | 0.00 | 30 | 1010.8 |
| 20260505010825 | 66 | 228 | 3.5 | 7.8 | 0.00 | 0.00 | 0.00 | 30 | 1010.8 |
| 20260505010310 | 67 | 360 | 3.5 | 7.8 | 0.00 | 0.00 | 0.00 | 30 | 1010.7 |
| 20260505010025 | 66 | 207 | 3.5 | 7.8 | 0.00 | 0.00 | 0.00 | 30 | 1010.6 |
| 20260505005814 | 67 | 225 | 2.6 | 6.1 | 0.00 | 0.00 | 0.00 | 30 | 1010.7 |
| 20260505004809 | 67 | 231 | 3.5 | 7.0 | 0.00 | 0.00 | 0.00 | 29 | 1010.5 |
| 20260505004540 | 67 | 258 | 1.7 | 5.2 | 0.00 | 0.00 | 0.00 | 29 | 1010.4 |
| 20260505004312 | 67 | 360 | 1.7 | 3.5 | 0.00 | 0.00 | 0.00 | 29 | 1010.5 |
| 20260505003823 | 67 | 360 | 1.7 | 5.2 | 0.00 | 0.00 | 0.00 | 29 | 1010.4 |
| 20260505003328 | 68 | 360 | 1.7 | 5.2 | 0.00 | 0.00 | 0.00 | 28 | 1010.2 |
| 20260505003056 | 67 | 269 | 2.6 | 5.2 | 0.00 | 0.00 | 0.00 | 28 | 1010.3 |
| 20260505002810 | 68 | 360 | 1.7 | 5.2 | 0.00 | 0.00 | 0.00 | 28 | 1010.3 |
| 20260505002341 | 68 | 263 | 1.7 | 6.1 | 0.00 | 0.00 | 0.00 | 28 | 1010.3 |
| 20260505001846 | 68 | 360 | 2.6 | 6.1 | 0.00 | 0.00 | 0.00 | 28 | 1010.2 |
| 20260505001517 | 68 | 254 | 1.7 | 4.3 | 0.00 | 0.00 | 0.00 | 27 | 1010.1 |
| 20260505001315 | 68 | 255 | 1.7 | 4.3 | 0.00 | 0.00 | 0.00 | 27 | 1010.2 |
| 20260505000820 | 69 | 360 | 1.7 | 5.2 | 0.00 | 0.00 | 0.00 | 27 | 1010.3 |
| 20260505000323 | 69 | 243 | 2.6 | 7.0 | 0.00 | 0.00 | 0.00 | 27 | 1010.2 |
| 20260505000034 | 69 | 233 | 1.7 | 7.0 | 0.00 | 0.00 | 0.00 | 26 | 1010.1 |
| 20260504235831 | 69 | 234 | 3.5 | 7.0 | 0.00 | 0.00 | 0.00 | 26 | 1010.2 |
| 20260504235316 | 69 | 360 | 2.6 | 8.7 | 0.00 | 0.00 | 0.00 | 26 | 1010.2 |
| 20260504234841 | 70 | 229 | 4.3 | 8.7 | 0.00 | 0.00 | 0.00 | 26 | 1010.2 |
| 20260504234522 | 69 | 218 | 3.5 | 8.7 | 0.00 | 0.00 | 0.00 | 26 | 1010.0 |
| 20260504234331 | 70 | 229 | 3.5 | 8.7 | 0.00 | 0.00 | 0.00 | 26 | 1010.3 |
| 20260504233816 | 70 | 248 | 5.2 | 8.7 | 0.00 | 0.00 | 0.00 | 25 | 1010.2 |
| 20260504233322 | 70 | 257 | 3.5 | 8.7 | 0.00 | 0.00 | 0.00 | 25 | 1010.2 |
| 20260504233037 | 70 | 360 | 4.3 | 8.7 | 0.00 | 0.00 | 0.00 | 25 | 1010.0 |
| 20260504232809 | 70 | 236 | 2.6 | 8.7 | 0.00 | 0.00 | 0.00 | 25 | 1010.1 |
| 20260504232320 | 71 | 252 | 3.5 | 8.7 | 0.00 | 0.00 | 0.00 | 25 | 1010.2 |
| 20260504231824 | 71 | 360 | 3.5 | 11.3 | 0.00 | 0.00 | 0.00 | 24 | 1010.1 |
| 20260504231600 | 70 | 360 | 3.5 | 11.3 | 0.00 | 0.00 | 0.00 | 24 | 1010.1 |
| 20260504231327 | 71 | 232 | 6.1 | 11.3 | 0.00 | 0.00 | 0.00 | 24 | 1010.1 |
| 20260504230839 | 71 | 221 | 6.1 | 11.3 | 0.00 | 0.00 | 0.00 | 24 | 1010.1 |
| 20260504230338 | 71 | 263 | 2.6 | 8.7 | 0.00 | 0.00 | 0.00 | 24 | 1010.1 |
| 20260504230016 | 71 | 198 | 3.5 | 8.7 | 0.00 | 0.00 | 0.00 | 24 | 1010.1 |
| 20260504225810 | 72 | 240 | 3.5 | 8.7 | 0.00 | 0.00 | 0.00 | 24 | 1010.1 |
| 20260504225331 | 71 | 360 | 2.6 | 14.8 | 0.00 | 0.00 | 0.00 | 23 | 1010.2 |
| 20260504224821 | 72 | 360 | 5.2 | 14.8 | 0.00 | 0.00 | 0.00 | 23 | 1010.1 |
| 20260504224506 | 71 | 360 | 3.5 | 9.6 | 0.00 | 0.00 | 0.00 | 23 | 1010.1 |
| 20260504224309 | 72 | 5 | 5.2 | 9.6 | 0.00 | 0.00 | 0.00 | 23 | 1010.1 |
| 20260504223814 | 72 | 360 | 3.5 | 11.3 | 0.00 | 0.00 | 0.00 | 23 | 1010.2 |
| 20260504223318 | 72 | 360 | 4.3 | 13.9 | 0.00 | 0.00 | 0.00 | 23 | 1010.2 |
| 20260504223020 | 71 | 227 | 3.5 | 13.9 | 0.00 | 0.00 | 0.00 | 23 | 1010.1 |
| 20260504222828 | 72 | 360 | 6.1 | 13.9 | 0.00 | 0.00 | 0.00 | 22 | 1010.2 |
| 20260504222331 | 72 | 271 | 3.5 | 11.3 | 0.00 | 0.00 | 0.00 | 22 | 1010.2 |
| 20260504221837 | 72 | 360 | 6.1 | 11.3 | 0.00 | 0.00 | 0.00 | 22 | 1010.4 |
| 20260504221559 | 72 | 250 | 7.0 | 11.3 | 0.00 | 0.00 | 0.00 | 22 | 1010.2 |
| 20260504221319 | 72 | 217 | 5.2 | 13.0 | 0.00 | 0.00 | 0.00 | 22 | 1010.3 |
| 20260504220829 | 72 | 360 | 5.2 | 13.0 | 0.00 | 0.00 | 0.00 | 22 | 1010.2 |
| 20260504220318 | 73 | 229 | 7.0 | 12.2 | 0.00 | 0.00 | 0.00 | 21 | 1010.3 |
| 20260504220054 | 72 | 360 | 4.3 | 12.2 | 0.00 | 0.00 | 0.00 | 21 | 1010.2 |
| 20260504215821 | 73 | 360 | 4.3 | 11.3 | 0.00 | 0.00 | 0.00 | 21 | 1010.2 |
| 20260504215326 | 73 | 360 | 4.3 | 12.2 | 0.00 | 0.00 | 0.00 | 21 | 1010.2 |
| 20260504214810 | 73 | 166 | 5.2 | 12.2 | 0.00 | 0.00 | 0.00 | 21 | 1010.4 |
| 20260504214509 | 72 | 360 | 4.3 | 10.4 | 0.00 | 0.00 | 0.00 | 21 | 1010.4 |
| 20260504214321 | 73 | 221 | 4.3 | 10.4 | 0.00 | 0.00 | 0.00 | 21 | 1010.4 |
| 20260504213826 | 73 | 166 | 5.2 | 13.0 | 0.00 | 0.00 | 0.00 | 21 | 1010.4 |
| 20260504213311 | 73 | 360 | 6.1 | 13.9 | 0.00 | 0.00 | 0.00 | 21 | 1010.4 |
| 20260504213022 | 72 | 256 | 5.2 | 13.9 | 0.00 | 0.00 | 0.00 | 20 | 1010.4 |
| 20260504212842 | 73 | 215 | 7.8 | 13.9 | 0.00 | 0.00 | 0.00 | 20 | 1010.4 |
| 20260504212325 | 73 | 360 | 5.2 | 12.2 | 0.00 | 0.00 | 0.00 | 20 | 1010.4 |
| 20260504211810 | 73 | 180 | 5.2 | 12.2 | 0.00 | 0.00 | 0.00 | 21 | 1010.3 |
| 20260504211505 | 73 | 234 | 3.5 | 11.3 | 0.00 | 0.00 | 0.00 | 20 | 1010.3 |
| 20260504211319 | 73 | 211 | 3.5 | 11.3 | 0.00 | 0.00 | 0.00 | 21 | 1010.4 |
| 20260504210824 | 73 | 360 | 5.2 | 11.3 | 0.00 | 0.00 | 0.00 | 21 | 1010.3 |
| 20260504210334 | 73 | 214 | 6.1 | 10.4 | 0.00 | 0.00 | 0.00 | 21 | 1010.4 |
| 20260504210020 | 72 | 226 | 2.6 | 11.3 | 0.00 | 0.00 | 0.00 | 21 | 1010.4 |
| 20260504205818 | 73 | 360 | 5.2 | 11.3 | 0.00 | 0.00 | 0.00 | 20 | 1010.4 |
| 20260504205323 | 73 | 250 | 5.2 | 11.3 | 0.00 | 0.00 | 0.00 | 21 | 1010.4 |
| 20260504204827 | 73 | 245 | 4.3 | 10.4 | 0.00 | 0.00 | 0.00 | 21 | 1010.3 |
| 20260504204536 | 72 | 360 | 4.3 | 10.4 | 0.00 | 0.00 | 0.00 | 21 | 1010.4 |
| 20260504204310 | 72 | 198 | 4.3 | 10.4 | 0.00 | 0.00 | 0.00 | 21 | 1010.5 |
| 20260504203821 | 72 | 360 | 5.2 | 13.0 | 0.00 | 0.00 | 0.00 | 21 | 1010.5 |
| 20260504203325 | 72 | 213 | 7.0 | 13.0 | 0.00 | 0.00 | 0.00 | 21 | 1010.5 |
| 20260504203050 | 72 | 213 | 6.1 | 13.0 | 0.00 | 0.00 | 0.00 | 21 | 1010.5 |
| 20260504202828 | 73 | 182 | 4.3 | 12.2 | 0.00 | 0.00 | 0.00 | 21 | 1010.5 |
| 20260504202312 | 73 | 360 | 5.2 | 13.9 | 0.00 | 0.00 | 0.00 | 21 | 1010.6 |
| 20260504201821 | 72 | 113 | 5.2 | 13.9 | 0.00 | 0.00 | 0.00 | 22 | 1010.7 |
| 20260504201607 | 72 | 360 | 6.1 | 16.5 | 0.00 | 0.00 | 0.00 | 21 | 1010.6 |
| 20260504201325 | 72 | 360 | 5.2 | 16.5 | 0.00 | 0.00 | 0.00 | 21 | 1010.7 |
| 20260504200809 | 73 | 206 | 7.0 | 12.2 | 0.00 | 0.00 | 0.00 | 20 | 1010.7 |
| 20260504200321 | 74 | 360 | 6.1 | 11.3 | 0.00 | 0.00 | 0.00 | 21 | 1010.9 |
| 20260504200002 | 73 | 73 | 3.5 | 13.0 | 0.00 | 0.00 | 0.00 | 20 | 1010.8 |
| 20260504195844 | 73 | 231 | 2.6 | 13.0 | 0.00 | 0.00 | 0.00 | 20 | 1010.8 |
| 20260504195334 | 73 | 360 | 6.1 | 13.0 | 0.00 | 0.00 | 0.00 | 20 | 1011.0 |
| 20260504194818 | 73 | 360 | 3.5 | 9.6 | 0.00 | 0.00 | 0.00 | 20 | 1010.9 |
| 20260504194607 | 73 | 251 | 3.5 | 9.6 | 0.00 | 0.00 | 0.00 | 20 | 1011.0 |
| 20260504194321 | 73 | 236 | 5.2 | 9.6 | 0.00 | 0.00 | 0.00 | 21 | 1011.0 |
| 20260504193833 | 73 | 257 | 5.2 | 9.6 | 0.00 | 0.00 | 0.00 | 21 | 1011.0 |
| 20260504193315 | 73 | 360 | 4.3 | 13.0 | 0.00 | 0.00 | 0.00 | 21 | 1011.1 |
| 20260504193045 | 72 | 160 | 5.2 | 13.0 | 0.00 | 0.00 | 0.00 | 21 | 1011.0 |
| 20260504192845 | 73 | 180 | 7.0 | 16.5 | 0.00 | 0.00 | 0.00 | 21 | 1011.2 |
| 20260504192349 | 73 | 216 | 6.1 | 16.5 | 0.00 | 0.00 | 0.00 | 21 | 1011.2 |
| 20260504191813 | 73 | 360 | 6.1 | 11.3 | 0.00 | 0.00 | 0.00 | 21 | 1011.3 |
| 20260504191505 | 72 | 242 | 3.5 | 11.3 | 0.00 | 0.00 | 0.00 | 20 | 1011.2 |
| 20260504191321 | 73 | 360 | 4.3 | 11.3 | 0.00 | 0.00 | 0.00 | 21 | 1011.3 |
| 20260504190824 | 73 | 360 | 5.2 | 9.6 | 0.00 | 0.00 | 0.00 | 20 | 1011.4 |
| 20260504190333 | 73 | 196 | 6.1 | 10.4 | 0.00 | 0.00 | 0.00 | 20 | 1011.4 |
| 20260504190017 | 73 | 232 | 7.0 | 10.4 | 0.00 | 0.00 | 0.00 | 19 | 1011.4 |
| 20260504185817 | 74 | 360 | 4.3 | 11.3 | 0.00 | 0.00 | 0.00 | 20 | 1011.4 |
| 20260504185322 | 73 | 88 | 3.5 | 13.0 | 0.00 | 0.00 | 0.00 | 21 | 1011.5 |
| 20260504184825 | 73 | 135 | 3.5 | 9.6 | 0.00 | 0.00 | 0.00 | 21 | 1011.6 |
| 20260504184537 | 72 | 205 | 3.5 | 12.2 | 0.00 | 0.00 | 0.00 | 20 | 1011.6 |
| 20260504184309 | 73 | 360 | 4.3 | 12.2 | 0.00 | 0.00 | 0.00 | 21 | 1011.6 |
| 20260504183840 | 72 | 360 | 6.1 | 12.2 | 0.00 | 0.00 | 0.00 | 21 | 1011.7 |
| 20260504183323 | 72 | 229 | 2.6 | 13.0 | 0.00 | 0.00 | 0.00 | 21 | 1011.7 |
| 20260504183023 | 71 | 360 | 5.2 | 13.0 | 0.00 | 0.00 | 0.00 | 22 | 1011.8 |
| 20260504182832 | 72 | 360 | 6.1 | 13.0 | 0.00 | 0.00 | 0.00 | 21 | 1011.8 |
| 20260504182317 | 72 | 360 | 7.0 | 11.3 | 0.00 | 0.00 | 0.00 | 21 | 1011.8 |
| 20260504181819 | 72 | 360 | 5.2 | 11.3 | 0.00 | 0.00 | 0.00 | 21 | 1011.9 |
| 20260504181521 | 72 | 360 | 5.2 | 11.3 | 0.00 | 0.00 | 0.00 | 20 | 1012.1 |
| 20260504181328 | 72 | 240 | 4.3 | 11.3 | 0.00 | 0.00 | 0.00 | 20 | 1012.0 |
| 20260504180812 | 72 | 234 | 5.2 | 13.0 | 0.00 | 0.00 | 0.00 | 19 | 1012.1 |
| 20260504180317 | 72 | 360 | 6.1 | 13.0 | 0.00 | 0.00 | 0.00 | 20 | 1012.1 |
| 20260504180055 | 72 | 360 | 4.3 | 11.3 | 0.00 | 0.00 | 0.00 | 21 | 1012.2 |
| 20260504175820 | 72 | 256 | 2.6 | 8.7 | 0.00 | 0.00 | 0.00 | 20 | 1012.3 |
| 20260504175332 | 72 | 175 | 3.5 | 10.4 | 0.00 | 0.00 | 0.00 | 21 | 1012.4 |
| 20260504174817 | 72 | 360 | 4.3 | 10.4 | 0.00 | 0.00 | 0.00 | 21 | 1012.4 |
| 20260504174551 | 71 | 165 | 3.5 | 9.6 | 0.00 | 0.00 | 0.00 | 21 | 1012.4 |
| 20260504174319 | 72 | 259 | 5.2 | 8.7 | 0.00 | 0.00 | 0.00 | 21 | 1012.4 |
| 20260504173831 | 71 | 360 | 1.7 | 13.9 | 0.00 | 0.00 | 0.00 | 21 | 1012.4 |
| 20260504173315 | 71 | 360 | 5.2 | 13.9 | 0.00 | 0.00 | 0.00 | 21 | 1012.5 |
| 20260504173006 | 70 | 360 | 3.5 | 12.2 | 0.00 | 0.00 | 0.00 | 20 | 1012.6 |
| 20260504172819 | 71 | 360 | 5.2 | 12.2 | 0.00 | 0.00 | 0.00 | 20 | 1012.6 |
| 20260504172350 | 71 | 261 | 5.2 | 12.2 | 0.00 | 0.00 | 0.00 | 21 | 1012.6 |
| 20260504171812 | 71 | 217 | 3.5 | 10.4 | 0.00 | 0.00 | 0.00 | 21 | 1012.6 |
| 20260504171556 | 70 | 360 | 5.2 | 15.6 | 0.00 | 0.00 | 0.00 | 20 | 1012.7 |
| 20260504171314 | 71 | 360 | 2.6 | 15.6 | 0.00 | 0.00 | 0.00 | 21 | 1012.7 |
| 20260504170825 | 70 | 239 | 7.0 | 15.6 | 0.00 | 0.00 | 0.00 | 20 | 1012.7 |
| 20260504170310 | 72 | 122 | 4.3 | 9.6 | 0.00 | 0.00 | 0.00 | 20 | 1012.8 |
| 20260504160315 | 69 | 223 | 2.6 | 8.7 | 0.00 | 0.00 | 0.00 | 21 | 1013.6 |
| 20260504150819 | 66 | 71 | 4.3 | 11.3 | 0.00 | 0.00 | 0.00 | 26 | 1014.3 |
| 20260504150328 | 67 | 360 | 3.5 | 8.7 | 0.00 | 0.00 | 0.00 | 27 | 1014.0 |
| 20260504141322 | 63 | 360 | 3.5 | 9.6 | 0.00 | 0.00 | 0.00 | 35 | 1014.3 |
| 20260504140846 | 62 | 360 | 3.5 | 10.4 | 0.00 | 0.00 | 0.00 | 36 | 1014.3 |
| 20260504140335 | 62 | 223 | 4.3 | 10.4 | 0.00 | 0.00 | 0.00 | 36 | 1014.3 |
| 20260504130345 | 57 | 229 | 5.2 | 12.2 | 0.00 | 0.00 | 0.00 | 47 | 1014.7 |